Dewpoint
-1 -4 -9 -11 -8 -9 -9 -8 -8 -10 -12 -14 -14 -15 -14 -9 -14 -13 -11 -10 -8 -9 -11 -12 -12 -11 -12 -9 -10 -11 -11 -11 -11 -11 -11 -10 -10 -10 -10 -11 -11 -11 -10 -10 -9 -9 -7 -7 -7 -7 -8 -6 -5 -5 -4 -4 -4 -3 -3 -3 -3 -3 -3 -3 -5 -5 -5 -4 -5 -5 -4 -4 -4 -4 -3 -2 -1 0 6 3 4 5 7 8 8
-4 -8 -10 -11 -11 -10 -10 -10 -10 -11 -12 -13 -12 -14 -14 -13 -11 -10 -11 -11 -10 -11 -12 -12 -11 -11 -11 -11 -11 -11 -11 -12 -11 -11 -10 -10 -10 -11 -11 -11 -11 -10 -10 -10 -9 -8 -8 -7 -8 -7 -7 -7 -6 -6 -5 -5 -5 -4 -4 -3 -3 -3 -3 -3 -4 -5 -6 -6 -5 -5 -4 -3 -3 -2 -1 -1 0 1 1 2 3 4 6 5 7
-7 -9 -11 -11 -11 -11 -11 -10 -10 -11 -12 -12 -13 -12 -13 -13 -12 -12 -12 -11 -10 -11 -11 -11 -10 -11 -11 -10 -11 -11 -11 -11 -10 -10 -10 -10 -10 -11 -11 -11 -11 -10 -10 -10 -9 -8 -8 -8 -8 -8 -8 -7 -7 -6 -6 -6 -5 -5 -5 -4 -4 -4 -4 -4 -4 -5 -5 -6 -5 -5 -5 -4 -4 -2 -1 0 2 3 3 3 4 4 6 5 6
-8 -10 -10 -11 -11 -11 -11 -10 -10 -11 -12 -12 -13 -13 -13 -12 -10 -10 -11 -11 -10 -10 -10 -11 -11 -11 -11 -11 -11 -11 -11 -10 -10 -10 -10 -11 -11 -11 -12 -11 -11 -10 -9 -8 -8 -8 -8 -9 -8 -8 -7 -7 -7 -6 -6 -6 -5 -5 -5 -5 -4 -5 -4 -5 -4 -4 -5 -5 -6 -5 -5 -4 -3 -2 -2 -1 -0 -0 2 4 5 5 4 5 6
-7 -8 -9 -10 -11 -12 -11 -11 -11 -12 -12 -12 -12 -12 -11 -11 -11 -11 -11 -11 -12 -11 -10 -9 -11 -11 -11 -11 -11 -11 -10 -10 -10 -10 -10 -10 -11 -11 -11 -11 -10 -10 -9 -9 -7 -8 -8 -8 -8 -8 -8 -8 -8 -7 -7 -7 -7 -6 -6 -5 -5 -5 -4 -4 -4 -4 -5 -5 -6 -6 -5 -5 -5 -5 -4 -3 -2 0 2 3 3 4 5 5 6
-7 -8 -9 -10 -11 -12 -12 -12 -11 -12 -12 -12 -11 -11 -11 -11 -12 -11 -10 -11 -11 -11 -11 -10 -9 -10 -11 -10 -10 -10 -10 -10 -10 -10 -10 -10 -10 -10 -9 -10 -9 -9 -9 -9 -9 -8 -8 -8 -8 -8 -8 -9 -9 -8 -8 -8 -8 -8 -7 -6 -5 -5 -5 -5 -5 -5 -5 -5 -6 -6 -6 -6 -6 -5 -4 -3 -2 1 2 3 3 4 4 4 6
-8 -9 -9 -10 -11 -12 -12 -12 -12 -11 -10 -10 -10 -11 -12 -12 -12 -12 -10 -10 -10 -11 -10 -11 -9 -9 -10 -10 -10 -9 -9 -9 -9 -10 -10 -10 -9 -9 -9 -9 -9 -9 -9 -9 -9 -8 -8 -8 -8 -8 -9 -9 -9 -9 -9 -9 -9 -9 -7 -7 -7 -6 -6 -6 -5 -5 -5 -5 -5 -5 -5 -6 -6 -6 -5 -4 -3 -3 -3 -1 -0 2 4 4 4
-8 -9 -9 -10 -11 -11 -11 -12 -11 -11 -11 -11 -11 -11 -11 -11 -11 -11 -9 -10 -10 -10 -10 -9 -10 -9 -9 -9 -9 -9 -9 -9 -10 -10 -9 -9 -10 -10 -10 -10 -10 -10 -10 -9 -9 -8 -8 -8 -8 -8 -8 -8 -8 -8 -8 -8 -8 -8 -7 -7 -7 -7 -7 -6 -6 -5 -5 -5 -5 -6 -6 -6 -6 -6 -5 -4 -3 -3 -1 -1 -2 -1 0 2 3
-7 -8 -9 -10 -10 -11 -11 -11 -11 -11 -10 -11 -11 -11 -10 -10 -9 -9 -10 -9 -8 -9 -9 -9 -9 -9 -9 -9 -9 -9 -9 -9 -9 -9 -10 -10 -10 -10 -10 -10 -10 -9 -9 -8 -8 -7 -7 -7 -7 -7 -5 -3 -2 -2 -2 -3 -7 -7 -7 -7 -7 -7 -6 -6 -6 -6 -6 -5 -5 -5 -5 -6 -7 -7 -6 -5 -3 -3 -2 -2 -1 -0 1 1 2
-8 -9 -10 -10 -10 -10 -10 -11 -11 -11 -11 -11 -10 -10 -10 -10 -9 -11 -11 -10 -9 -8 -8 -8 -8 -9 -10 -10 -10 -11 -10 -10 -7 -1 4 -3 -5 -6 -5 -4 -3 -3 -3 -3 -3 -3 -4 -5 -4 -1 -1 -0 1 2 3 3 3 1 -1 -2 -3 -4 -4 -5 -5 -5 -5 -6 -6 -5 -6 -6 -6 -6 -6 -5 -4 -3 -2 -2 -3 -3 -1 -1 0
-9 -10 -10 -10 -10 -10 -10 -11 -10 -10 -10 -10 -10 -10 -9 -9 -10 -10 -9 -9 -9 -9 -8 -8 -10 -10 -10 -11 -11 -11 -11 -10 -2 7 9 10 5 4 4 3 2 1 0 -0 -1 -1 -0 -0 -2 -0 2 1 1 1 2 2 2 2 2 2 2 -0 -1 -2 -2 -2 -3 -4 -4 -4 -5 -5 -5 -4 -5 -5 -4 -4 -4 -3 -3 -2 -2 -3 -4
-9 -10 -10 -10 -10 -10 -10 -10 -10 -10 -11 -10 -10 -11 -10 -11 -10 -9 -9 -10 -9 -9 -10 -10 -11 -11 -11 -12 -12 -12 -11 -5 7 9 11 11 10 4 4 3 2 1 1 -1 -2 -3 -4 -5 -4 -4 -4 -3 -3 -3 -1 0 1 0 1 1 2 7 7 0 -2 -3 -2 -1 -2 -3 -3 -4 -3 -3 -3 -3 -3 -3 -2 -2 -2 -2 -2 -2 -2
-9 -9 -10 -10 -10 -10 -11 -11 -11 -11 -11 -10 -10 -10 -10 -10 -10 -10 -10 -10 -11 -12 -9 -9 -11 -11 -12 -12 -13 -12 -12 2 8 10 10 11 10 6 2 3 1 0 -1 -2 -3 -3 -3 -3 -4 -4 -5 -0 -1 -3 -4 -5 -1 -0 -1 -0 1 3 8 10 9 3 2 1 -1 -1 -0 1 1 1 1 0 1 -1 -1 -1 -1 -1 -1 -1 -1
-9 -9 -9 -10 -10 -11 -10 -11 -11 -10 -10 -10 -10 -10 -11 -10 -10 -10 -11 -10 -10 -11 -11 -10 -10 -12 -12 -13 -12 -12 -12 -6 7 9 10 11 10 8 2 2 1 -1 -2 -4 -6 -6 -7 -7 -7 -8 -7 -7 -6 -6 -7 -7 -7 -7 -7 -6 -6 -4 0 4 3 2 2 -1 -2 -3 -2 -1 -3 -2 -0 2 1 1 2 2 1 0 -0 -1 0
-9 -10 -10 -10 -10 -10 -10 -10 -10 -9 -9 -10 -10 -10 -10 -10 -10 -10 -10 -10 -10 -11 -11 -12 -11 -11 -12 -12 -12 -13 -12 3 8 10 10 11 11 8 3 2 0 -3 -6 -8 -8 -8 -8 -8 -8 -8 -8 -8 -7 -6 -7 -7 -7 -7 -7 -7 -6 -6 -5 -5 -5 -4 -4 -4 -4 -4 -3 -2 -2 -2 -1 -0 -1 -1 -1 -0 1 1 2 2 3
-9 -9 -9 -9 -9 -9 -9 -9 -9 -9 -9 -10 -11 -10 -10 -10 -11 -10 -10 -10 -11 -11 -11 -12 -12 -12 -11 -12 -12 -12 -12 6 9 10 10 11 11 3 2 -0 -2 -5 -8 -10 -9 -8 -8 -8 -8 -8 -8 -8 -5 4 3 -1 -3 -4 -4 -5 -5 -4 -4 2 7 9 2 -2 -3 -3 -2 -2 6 0 0 -1 -0 0 1 1 1 -0 -0 -1 -1
-8 -9 -8 -8 -8 -9 -9 -9 -9 -10 -10 -10 -11 -10 -10 -10 -10 -11 -12 -10 -9 -10 -11 -11 -11 -11 -12 -12 -13 -12 -12 -2 7 9 10 11 8 2 1 -0 -2 -4 -8 -10 -10 -9 -9 -9 -9 -8 -8 -8 -5 7 8 -1 -3 -2 -1 -1 -1 -2 -2 -1 8 11 11 11 11 12 13 12 12 12 13 13 9 7 3 1 -0 0 -1 -2 -1
-8 -8 -8 -8 -8 -8 -8 -9 -10 -10 -11 -11 -10 -9 -10 -10 -10 -10 -10 -11 -10 -11 -11 -11 -11 -11 -12 -12 -12 -12 -12 -5 6 8 9 10 7 2 1 -1 -3 -5 -7 -10 -9 -9 -8 -5 -4 -7 -7 -8 5 5 6 2 -1 -1 -1 -1 -2 -2 -2 -1 -2 -1 9 9 11 12 11 10 11 11 10 11 11 10 6 1 2 2 0 -0 -1
-8 -8 -8 -8 -8 -9 -9 -10 -10 -10 -11 -10 -11 -11 -10 -10 -10 -12 -11 -12 -11 -11 -11 -12 -11 -11 -11 -11 -8 -9 -11 -10 3 7 8 9 4 -0 -1 -2 -4 -5 -7 -8 -9 -9 -9 -6 -4 -4 -5 -1 6 6 7 3 -0 -0 -1 -2 -3 -4 -4 -3 -3 -3 -2 -2 -2 -3 -4 1 -4 -4 -2 3 4 3 2 2 2 3 1 1 2
-7 -7 -7 -8 -9 -9 -10 -10 -10 -11 -10 -11 -11 -11 -11 -13 -12 -11 -11 -12 -12 -12 -12 -12 -12 -12 -12 -12 -12 -12 -13 -13 -10 5 7 8 9 1 -1 -3 -5 -7 -8 -9 -10 -10 -9 -9 -6 3 7 7 6 7 7 7 1 -1 -2 -3 -4 -4 -2 -2 -1 0 -4 -5 -8 -9 -9 -8 -8 -8 -9 -7 -4 -2 -1 0 1 2 2 1 1
-8 -8 -8 -10 -10 -9 -10 -11 -10 -11 -11 -11 -11 -12 -14 -11 -12 -13 -13 -14 -14 -14 -13 -13 -14 -13 -13 -13 -13 -13 -14 -14 -13 4 6 8 8 6 -1 -2 -4 -6 -8 -9 -9 -10 -9 -8 -8 -4 2 6 6 6 7 8 7 -1 -2 -3 -2 -1 1 -5 -5 -4 -9 -9 -9 -10 -10 -10 -10 -10 -9 -8 -6 -5 -3 -1 -0 1 0 -1 -1
-8 -10 -8 -8 -9 -10 -10 -11 -11 -11 -12 -13 -14 -14 -14 -14 -14 -15 -16 -15 -14 -14 -15 -15 -14 -15 -14 -14 -15 -15 -14 -12 -14 -3 5 6 8 8 1 -1 -2 -5 -7 -8 -8 -8 -8 -7 -7 -4 -0 5 5 7 8 8 8 -1 -1 6 6 5 -3 -5 -8 -10 -11 -13 -13 -12 -12 -12 -11 -11 -10 -8 -7 -5 -5 -4 -3 -1 1 2 2
-9 -9 -10 -10 -11 -11 -12 -13 -12 -13 -13 -14 -14 -14 -14 -16 -16 -17 -17 -16 -16 -16 -17 -17 -17 -17 -17 -16 -15 -16 -16 -15 -12 -13 -4 5 7 8 7 -0 4 -5 -5 -6 -7 -6 -6 -8 -8 -4 3 5 6 7 6 7 4 1 5 5 5 2 -5 -13 -11 -14 -15 -15 -15 -15 -13 -13 -12 -12 -10 -10 -9 -7 -6 -5 -4 -3 -1 0 2
-10 -11 -12 -11 -12 -13 -13 -13 -14 -16 -15 -14 -16 -15 -15 -16 -16 -17 -18 -17 -17 -17 -17 -18 -19 -19 -19 -18 -18 -17 -17 -16 -13 -11 -12 2 6 7 8 5 2 -6 -6 -6 -6 -7 -9 -12 -10 2 5 5 5 6 6 4 -0 4 4 4 -2 -5 -13 -14 -16 -18 -15 -15 -16 -16 -16 -15 -14 -12 -10 -9 -8 -7 -4 -2 -2 -2 -1 1 4
-12 -12 -13 -13 -13 -14 -14 -15 -15 -17 -16 -17 -16 -15 -16 -18 -17 -18 -19 -18 -18 -18 -18 -18 -19 -19 -19 -19 -18 -18 -17 -17 -17 -15 -12 -11 4 6 7 5 -4 -2 -6 -7 -8 -10 -5 4 2 -1 1 3 3 3 -3 -5 0 -1 -3 -4 -5 -19 -19 -19 -20 -21 -21 -20 -17 -16 -16 -13 -12 -10 -8 -6 -4 -5 -8 -8 -8 -7 -6 -5 -4
-14 -13 -13 -14 -14 -15 -16 -16 -17 -17 -17 -18 -16 -16 -16 -16 -17 -17 -18 -18 -18 -18 -18 -18 -18 -19 -19 -19 -19 -18 -18 -18 -17 -17 -13 -12 -11 -2 5 -0 -3 -4 -5 -7 -6 -1 4 -0 -1 -4 -4 -6 -8 -10 -10 -9 -4 -4 -5 -8 -20 -20 -20 -22 -22 -21 -20 -19 -16 -15 -14 -13 -12 -12 -9 -9 -11 -12 -11 -10 -10 -9 -8 -7 -7
-13 -13 -13 -13 -15 -17 -17 -15 -15 -16 -19 -18 -18 -17 -17 -18 -18 -17 -17 -18 -18 -18 -18 -18 -18 -18 -19 -19 -19 -18 -18 -18 -17 -17 -17 -17 -17 -15 -14 -13 -10 -9 -10 -12 -9 -11 -11 -9 -9 -7 -6 -5 -5 -5 -5 -5 -14 -17 -21 -21 -21 -22 -20 -22 -21 -20 -17 -17 -16 -16 -15 -14 -12 -11 -13 -13 -12 -11 -11 -8 -9 -9 -8 -7 -6
-13 -13 -13 -14 -14 -16 -16 -13 -14 -15 -16 -17 -17 -19 -19 -19 -18 -18 -18 -18 -19 -19 -19 -18 -18 -19 -19 -19 -18 -18 -18 -17 -17 -17 -17 -16 -16 -16 -16 -15 -16 -16 -16 -15 -15 -14 -12 -8 -9 -10 -12 -12 -13 -17 -19 -21 -20 -19 -23 -24 -23 -20 -12 -11 -11 -17 -20 -19 -17 -16 -15 -15 -16 -16 -14 -14 -14 -12 -10 -9 -10 -11 -10 -9 -9
-13 -15 -15 -16 -15 -15 -15 -16 -16 -17 -17 -17 -17 -17 -17 -18 -18 -17 -17 -16 -16 -17 -17 -17 -16 -17 -17 -17 -17 -17 -16 -16 -15 -11 -13 -11 -13 -15 -15 -15 -15 -15 -12 -9 -11 -11 -11 -12 -12 -12 -12 -13 -14 -19 -22 -26 -25 -24 -25 -27 -27 -26 -25 -22 -23 -21 -20 -20 -19 -19 -17 -18 -17 -16 -15 -15 -14 -14 -15 -13 -12 -12 -11 -10 -10
-17 -15 -15 -16 -16 -17 -17 -17 -19 -18 -18 -18 -18 -17 -14 -11 -13 -16 -15 -10 -9 -5 -2 -12 -14 -14 -13 -13 -12 -13 -13 -11 -1 4 -0 -0 -4 -4 -5 -3 -5 -7 -6 -5 -5 -8 -10 -13 -14 -15 -17 -21 -22 -23 -24 -27 -28 -28 -28 -16 -20 -23 -23 -22 -22 -21 -20 -20 -20 -19 -19 -18 -18 -17 -16 -15 -16 -15 -14 -11 -13 -11 -11 -12 -11
-15 -15 -15 -16 -15 -16 -17 -18 -18 -19 -19 -19 -19 -18 -18 -16 -0 3 -4 -6 -7 3 6 7 7 0 -3 -4 -3 -1 -2 -2 2 2 3 -0 1 -4 -3 -4 -5 -5 -4 -9 -17 -20 -21 -22 -24 -24 -24 -27 -26 -26 -27 -28 -26 -27 -28 -28 -27 -24 -20 -23 -23 -20 -19 -20 -20 -20 -19 -19 -18 -17 -16 -16 -16 -16 -15 -13 -14 -14 -14 -14 -13
-15 -15 -16 -16 -16 -16 -18 -18 -18 -19 -19 -20 -19 -19 -20 -19 -19 -16 -2 -7 -2 5 6 7 7 5 0 -2 -4 -5 -4 -6 -6 2 -1 -1 -5 -5 -4 1 1 -1 -5 -9 -21 -26 -25 -28 -29 -29 -30 -30 -28 -27 -28 -29 -29 -30 -30 -29 -28 -27 -25 -25 -22 -23 -22 -23 -23 -20 -20 -19 -18 -17 -17 -17 -16 -17 -17 -17 -17 -16 -16 -14 -14
-17 -17 -17 -17 -17 -17 -17 -18 -18 -19 -20 -19 -20 -20 -21 -21 -21 -20 -18 -3 0 -6 0 4 5 5 4 3 3 3 -2 -3 -3 2 -1 -6 -7 -8 -5 -2 -4 -6 -10 -23 -31 -30 -31 -31 -32 -31 -31 -30 -30 -32 -31 -31 -31 -31 -32 -31 -29 -28 -27 -25 -21 -23 -22 -22 -21 -21 -19 -18 -18 -18 -17 -17 -17 -19 -18 -18 -18 -17 -17 -17 -16
-18 -17 -17 -17 -18 -19 -19 -19 -20 -20 -20 -20 -19 -20 -20 -20 -21 -21 -20 -20 -20 -15 -11 -10 -10 -10 -10 -8 0 2 2 3 -1 -8 -10 -4 1 -1 -7 -9 -5 -4 -14 -30 -31 -32 -34 -33 -32 -32 -32 -32 -31 -31 -30 -30 -30 -30 -30 -30 -29 -31 -30 -29 -29 -25 -25 -24 -23 -22 -20 -20 -19 -20 -20 -20 -19 -19 -20 -19 -19 -18 -18 -16 -16
-20 -17 -16 -15 -18 -18 -19 -19 -20 -20 -20 -20 -20 -20 -20 -20 -19 -20 -21 -21 -21 -21 -20 -19 -16 -14 -16 -15 -13 -12 -12 -12 -11 -11 -7 2 -2 -6 -4 -22 -26 -27 -28 -30 -30 -32 -32 -30 -31 -31 -32 -32 -31 -30 -30 -32 -32 -31 -30 -30 -31 -32 -31 -29 -27 -27 -26 -26 -24 -23 -22 -21 -22 -19 -19 -20 -21 -21 -21 -20 -19 -19 -18 -18 -17
-21 -21 -20 -19 -19 -19 -19 -20 -20 -20 -20 -20 -19 -19 -19 -19 -20 -20 -19 -19 -20 -20 -20 -20 -20 -16 -15 -14 -14 -13 -13 -13 -13 -9 2 0 -7 -6 -23 -27 -29 -29 -29 -30 -30 -28 -29 -30 -31 -30 -33 -33 -32 -32 -31 -31 -31 -32 -34 -33 -30 -31 -31 -30 -26 -26 -25 -25 -25 -23 -21 -24 -22 -20 -21 -22 -22 -22 -22 -21 -20 -19 -18 -18 -16
-21 -21 -20 -21 -20 -21 -21 -21 -21 -20 -17 -17 -18 -19 -19 -19 -19 -19 -20 -20 -20 -20 -20 -21 -21 -21 -18 -18 -17 -15 -14 -14 -1 1 1 -0 -1 -13 -25 -28 -29 -29 -27 -29 -27 -28 -28 -28 -28 -30 -31 -31 -32 -31 -33 -33 -32 -33 -27 -30 -32 -32 -32 -31 -28 -24 -27 -27 -28 -27 -27 -25 -24 -23 -23 -23 -23 -23 -22 -21 -20 -19 -18 -17 -14
-21 -20 -19 -20 -21 -22 -22 -21 -20 -17 -17 -18 -18 -19 -19 -20 -20 -20 -20 -21 -20 -21 -21 -22 -18 -21 -22 -22 -18 -18 -18 -15 -14 -14 -15 -16 -18 -23 -23 -25 -26 -27 -26 -27 -29 -27 -27 -27 -30 -30 -29 -30 -31 -31 -34 -34 -34 -35 -34 -34 -32 -30 -23 -23 -22 -27 -27 -28 -29 -28 -25 -24 -25 -25 -22 -23 -24 -23 -23 -21 -21 -21 -20 -18 -17
-23 -19 -16 -15 -15 -18 -19 -18 -18 -19 -19 -19 -20 -20 -20 -20 -20 -21 -21 -21 -22 -22 -22 -22 -22 -22 -22 -21 -23 -20 -19 -21 -22 -22 -22 -22 -21 -21 -22 -23 -25 -25 -26 -26 -26 -26 -28 -27 -27 -29 -29 -30 -30 -31 -31 -31 -33 -34 -34 -34 -33 -34 -31 -33 -31 -32 -30 -30 -29 -28 -26 -25 -26 -26 -24 -24 -24 -23 -23 -22 -21 -21 -20 -20 -19
-20 -21 -19 -15 -17 -17 -17 -17 -17 -18 -19 -20 -21 -21 -21 -21 -21 -21 -21 -22 -22 -22 -22 -22 -22 -22 -21 -24 -24 -23 -23 -22 -22 -22 -22 -22 -21 -21 -21 -23 -24 -25 -25 -25 -26 -26 -27 -27 -27 -28 -28 -29 -29 -30 -30 -30 -31 -31 -33 -33 -34 -34 -33 -34 -33 -32 -31 -31 -29 -28 -27 -27 -26 -25 -25 -24 -23 -23 -22 -22 -21 -21 -20 -20 -19
-22 -22 -18 -17 -16 -18 -18 -18 -19 -19 -19 -20 -20 -21 -21 -20 -20 -20 -21 -22 -22 -22 -22 -22 -22 -22 -20 -19 -16 -16 -19 -20 -20 -20 -21 -22 -21 -22 -22 -23 -23 -24 -24 -24 -25 -25 -26 -26 -27 -28 -29 -29 -29 -30 -29 -30 -30 -31 -31 -31 -32 -30 -33 -33 -33 -32 -30 -28 -28 -27 -28 -27 -26 -26 -26 -24 -21 -21 -22 -22 -22 -22 -21 -20 -19
-23 -22 -21 -20 -19 -19 -20 -19 -20 -19 -19 -19 -20 -21 -21 -21 -21 -21 -22 -22 -22 -22 -22 -22 -22 -21 -19 -17 -17 -17 -19 -20 -20 -21 -21 -22 -22 -22 -22 -22 -22 -23 -23 -24 -24 -25 -25 -26 -27 -27 -28 -28 -29 -29 -29 -30 -30 -30 -31 -32 -33 -33 -32 -32 -32 -31 -30 -29 -28 -27 -28 -26 -25 -23 -23 -21 -24 -24 -23 -23 -22 -22 -21 -21 -19
-21 -21 -21 -20 -20 -20 -20 -19 -19 -21 -22 -22 -22 -20 -20 -20 -21 -21 -21 -22 -22 -22 -22 -22 -22 -21 -21 -20 -19 -19 -20 -21 -20 -21 -21 -22 -22 -22 -22 -22 -22 -22 -22 -23 -23 -24 -25 -26 -26 -26 -27 -27 -28 -29 -29 -29 -29 -30 -31 -33 -32 -33 -33 -32 -32 -30 -29 -28 -28 -27 -26 -27 -25 -26 -26 -24 -24 -24 -24 -24 -23 -22 -21 -21 -20
-21 -21 -20 -20 -20 -20 -20 -21 -21 -21 -21 -20 -19 -20 -20 -21 -22 -22 -23 -23 -23 -22 -22 -22 -22 -22 -22 -21 -21 -21 -22 -22 -22 -22 -22 -22 -22 -22 -22 -22 -22 -22 -22 -23 -24 -24 -25 -26 -26 -26 -27 -27 -27 -29 -28 -28 -29 -30 -32 -32 -31 -30 -33 -32 -31 -32 -30 -30 -29 -28 -29 -27 -25 -26 -25 -24 -25 -25 -24 -24 -23 -23 -22 -21 -20
-23 -22 -21 -22 -22 -23 -22 -22 -21 -21 -20 -21 -22 -23 -23 -24 -24 -23 -23 -23 -22 -22 -22 -22 -22 -22 -22 -22 -22 -22 -22 -22 -22 -22 -22 -22 -22 -22 -22 -21 -22 -22 -22 -23 -23 -24 -25 -26 -26 -27 -27 -27 -27 -28 -28 -28 -29 -29 -30 -31 -32 -32 -32 -34 -33 -32 -30 -29 -28 -28 -28 -27 -28 -27 -26 -25 -24 -25 -24 -24 -24 -22 -22 -21 -21
-23 -22 -21 -21 -21 -21 -21 -22 -22 -22 -23 -23 -24 -24 -25 -25 -24 -24 -23 -22 -22 -22 -22 -22 -22 -22 -22 -22 -22 -22 -22 -22 -22 -22 -22 -22 -22 -22 -21 -21 -21 -22 -22 -23 -23 -24 -25 -26 -26 -27 -27 -27 -27 -27 -28 -29 -29 -29 -30 -31 -30 -31 -32 -32 -32 -30 -29 -28 -28 -28 -27 -27 -27 -26 -24 -25 -25 -25 -25 -24 -23 -23 -22 -21 -21
-23 -23 -21 -21 -21 -21 -21 -21 -23 -23 -24 -24 -24 -24 -24 -24 -24 -23 -22 -22 -22 -22 -22 -23 -23 -23 -23 -23 -23 -23 -23 -23 -23 -22 -22 -22 -22 -22 -21 -21 -22 -22 -22 -23 -24 -24 -25 -26 -26 -27 -27 -27 -27 -28 -28 -29 -30 -29 -29 -29 -30 -30 -32 -32 -29 -28 -27 -26 -25 -26 -26 -26 -26 -26 -25 -25 -25 -25 -25 -24 -23 -23 -22 -21 -21
-22 -21 -23 -21 -22 -23 -23 -24 -23 -22 -23 -24 -24 -24 -23 -23 -23 -23 -23 -23 -23 -23 -23 -23 -23 -23 -23 -23 -23 -23 -23 -23 -23 -22 -22 -22 -22 -21 -21 -22 -22 -22 -23 -23 -25 -25 -26 -26 -27 -27 -28 -28 -28 -28 -28 -28 -30 -30 -30 -29 -29 -30 -29 -27 -29 -28 -27 -26 -26 -26 -26 -27 -28 -28 -26 -26 -26 -25 -25 -25 -24 -23 -22 -21 -20
-23 -22 -22 -23 -23 -23 -23 -23 -22 -23 -24 -24 -24 -24 -24 -25 -24 -24 -23 -23 -23 -23 -23 -23 -23 -23 -23 -23 -23 -23 -23 -23 -23 -23 -22 -22 -21 -21 -21 -22 -23 -23 -24 -25 -25 -26 -27 -28 -28 -28 -29 -29 -29 -28 -28 -29 -29 -30 -30 -31 -29 -26 -25 -25 -25 -27 -25 -24 -25 -26 -28 -28 -28 -27 -26 -26 -25 -25 -25 -24 -24 -23 -22 -21 -20
-23 -21 -22 -22 -22 -23 -23 -22 -23 -23 -24 -24 -25 -25 -25 -24 -24 -24 -23 -23 -23 -23 -23 -23 -24 -24 -24 -24 -24 -24 -24 -24 -23 -23 -22 -22 -22 -22 -22 -23 -24 -24 -25 -26 -27 -28 -29 -30 -30 -30 -30 -30 -29 -29 -29 -29 -29 -29 -31 -30 -27 -26 -25 -26 -26 -25 -25 -27 -26 -28 -27 -27 -27 -27 -27 -26 -26 -25 -25 -24 -24 -22 -21 -21 -20
-22 -22 -22 -23 -23 -23 -23 -24 -24 -24 -25 -25 -25 -25 -24 -24 -24 -24 -23 -24 -24 -24 -24 -24 -24 -24 -24 -24 -23 -24 -23 -23 -23 -22 -22 -22 -22 -22 -23 -24 -25 -27 -28 -28 -29 -30 -31 -31 -31 -31 -31 -29 -29 -29 -29 -30 -30 -31 -29 -27 -26 -26 -26 -26 -26 -24 -24 -23 -27 -27 -27 -27 -27 -27 -27 -26 -26 -26 -25 -23 -23 -22 -21 -20 -19